Hourly Data Report for September 15, 2017

All times are specified in Local Standard Time (LST). Add 1 hour to adjust for Daylight Saving Time where and when it is observed.

TORONTO INTL A
ONTARIO

43°40'36.000" N
79°37'50.000" W
173.40 m
6158731
71624
YYZ

Download Data

Hourly Data (September 2017)
Hourly Data Report for September 15, 2017
Temp Definition
°C
Dew Point Temp Definition
°C
Rel Hum Definition
%
Wind Dir Definition
10's deg

Wind Spd Definition
km/h
Visibility Definition
km
Stn Press Definition
kPa
Hmdx Definition


Wind Chill Definition


Weather Definition


TIME
00:00 Legend Double Dagger 20.5 16.5 78 32 10 24.1 99.46 25   LegendNANA
01:00 Legend Double Dagger 19.1 16.4 84 29 8 24.1 99.50     Mostly Cloudy
02:00 Legend Double Dagger 18.4 16.4 88 28 12 24.1 99.52     LegendNANA
03:00 Legend Double Dagger 17.9 16.2 90 29 8 24.1 99.52     LegendNANA
04:00 Legend Double Dagger 17.9 15.7 87 31 8 24.1 99.58     Mainly Clear
05:00 Legend Double Dagger 17.6 15.6 87 31 9 24.1 99.62     LegendNANA
06:00 Legend Double Dagger 17.6 15.1 85 34 6 24.1 99.71     LegendNANA
07:00 Legend Double Dagger 18.3 15.3 82 33 9 24.1 99.75     Clear
08:00 Legend Double Dagger 20.0 15.5 75 32 9 24.1 99.81     LegendNANA
09:00 Legend Double Dagger 21.6 15.7 69 33 9 24.1 99.86 26   LegendNANA
10:00 Legend Double Dagger 22.4 15.8 66 36 2 24.1 99.87 27   Clear
11:00 Legend Double Dagger 24.8 16.0 57 26 3 24.1 99.87 29   LegendNANA
12:00 Legend Double Dagger 25.6 16.9 58 15 8 24.1 99.84 31   LegendNANA
13:00 Legend Double Dagger 25.5 16.4 57 14 16 24.1 99.82 30   Mostly Cloudy
14:00 Legend Double Dagger 25.8 16.4 56 17 14 24.1 99.81 31   LegendNANA
15:00 Legend Double Dagger 25.5 16.1 56 15 13 24.1 99.79 30   LegendNANA
16:00 Legend Double Dagger 25.7 16.0 55 16 12 24.1 99.78 30   Cloudy
17:00 Legend Double Dagger 25.0 16.1 57 14 10 24.1 99.82 30   LegendNANA
18:00 Legend Double Dagger 23.8 16.3 62 14 8 24.1 99.85 29   LegendNANA
19:00 Legend Double Dagger 22.4 16.2 68 15 8 24.1 99.88 27   Mainly Clear
20:00 Legend Double Dagger 21.9 16.4 71 16 7 24.1 99.92 27   LegendNANA
21:00 Legend Double Dagger 21.3 16.7 75 20 4 24.1 99.95 26   LegendNANA
22:00 Legend Double Dagger 19.4 15.9 80 27 10 24.1 99.99     Clear
23:00 Legend Double Dagger 18.6 15.6 82 27 8 24.1 100.00     LegendNANA

Notes on Data Quality.

Legend

  • E = Estimated
  • M = Missing
  • NA = Not Available
  • ‡ = Partner data that is not subject to review by the National Climate Archives
Date modified: